Location: Balsareny
(41.8670°N, 1.8830°E)
Time: 04:54:43
(UTC+01:00)

N. Korean satellite - Pass Details

Date: 02 December 2021
Orbit: 447 x 491 km, 97.3° (Epoch: 23 January)

Event Time Altitude Azimuth Distance (km) Brightness Sun altitude
Rises 06:47:41 0° 359° (N) 2,468 10.0 -13.4°
Reaches altitude 10° 06:49:55 10° 347° (NNW) 1,586 8.9 -13.0°
Maximum altitude 06:52:47 26° 289° (WNW) 924 7.4 -12.5°
Drops below altitude 10° 06:55:38 10° 231° (SW) 1,569 8.8 -12.0°
Sets 06:57:51 0° 218° (SW) 2,435 9.9 -11.6°
